CZ-6A DEB

Satellite information

Favourite Embed

Satellite Type and Status

DEBRISIN ORBIT

Key statistics

Satellite CZ-6A DEB at a glance.

Uptime

909

Days in orbit

Revolutions

≈ 14.7

Per day

Orbit

SSO

Sun Synchronous Orbit

Inclination

98.6

Latest

Satellite identification and parameters

Extended collection of information and parameters for CZ-6A DEB.

Object identification

Identified? True

Debris? True

Object name: CZ-6A DEB

International designator: 2022-151ADY

Object number (NORAD): 56600

Object ID (CCSDS): 56600

Country: PEOPLES REPUBLIC OF CHINA (PRC)

Current information (Y/N): Y

RCS size: SMALL

Orbital parameters

Period: 97.945 minutes

Inclination: 98.6312 deg

SMA: 7038.549 km

Apoapsis: 711.076 km

Periapsis: 609.753 km

RAAN: 169.0644 deg

Eccentricy: 0.0071977

Argument of periapsis: 97.3487 deg

Mean anomaly: 263.5905 deg

Mean motion: 14.70205471 rev/day

Mean motion (dot): 0.0002029 rev/day2

B* drag term: 0.0032363 1/REarth

Two-line elements (TLE)

Creation date: May 8, 2025, 3:01 a.m.

Reference frame: TEME

Reference center: EARTH

Epoch: May 7, 2025, 9:19 p.m. UTC

TLE line 0: 0 CZ-6A DEB

TLE line 1: 1 56600U 22151ADY 25127.88882965 .00020290 00000-0 32363-2 0 9991

TLE line 2: 2 56600 98.6312 169.0644 0071977 97.3487 263.5905 14.70205471116501

Live tracking on map

Real-time ground track for satellite CZ-6A DEB.

In-orbit conjunctions

A list of the most updated potential collisions computed for object CZ-6A DEB.

Target Orbit TCA Probability of collision Miss distance Type
IRIDIUM 33 DEB LEO 2024-12-16 11:32:55 0.0001514753 113.0 (m) DEBRIS
TIROS 4 LEO 2024-06-25 16:58:01 0.0002080064 340.0 (m) PAYLOAD
CHUANG XIN 1 (CZ-1) SSO 2024-06-17 01:19:38 0.0001001807 470.0 (m) PAYLOAD

Associated space launch

Chinese satellite reported for atmospheric/ocean/environmental/spatial parameter research purposes, details TBD.

CZ-6A DEB was lifted into orbit during the mission ‘Long March 6A | Yunhai 3’, on board a Long March 6A space rocket.

The launch took place on Nov. 11, 2022, 10:52 p.m. from Launch Complex 9A.

For more information about the launch, click the button.

Launch to space Long March 6A | Yunhai 3
Long March 6A | Yunhai 3

Agency: N/A

Status: Launch Successful

Launch date: Nov. 11, 2022, 10:52 p.m. UTC

Rocket: Long March 6A

Launch pad: Launch Complex 9A

Location: Taiyuan Satellite Launch Center, People's Republic of China

...

Latest news about this satellite

There are no fresh news available about this satellite. Check back as we update our databases every day.


Newsletter sign-up

Weekly statistics, charts and insights to help you stay on top of the space industry.